Location: Grieser Field
(39.7333°N, 81.7975°W)
Time: 12:42:30
(UTC-05:00)

Daily predictions for brighter satellites

Satellite Brightness Start Highest point End
(mag) Time Altitude Azimuth Time Altitude Azimuth Time Altitude Azimuth
SJ-6B 4.4 18:41:32 10° ESE 18:43:51 16° ENE 18:46:12 10° NNE
Cosmos 2034 Rocket 4.4 18:39:39 10° N 18:45:38 40° ENE 18:51:32 10° SE
Meteor 1-20 Rocket 4.3 18:41:16 10° S 18:46:53 62° E 18:52:37 10° NNE
Cosmos 1812 2.7 18:43:59 10° N 18:47:53 90° ENE 18:51:45 10° S
Envisat 4.3 18:45:06 10° ESE 18:48:36 19° ENE 18:52:06 10° NNE
SKYMED 2 4.0 18:45:31 10° N 18:49:50 68° WNW 18:54:08 10° SSW
MOS 1 4.3 18:45:00 10° SSE 18:50:39 84° ENE 18:56:22 10° NNW
Cosmos 2263 Rocket 3.7 18:48:22 10° SE 18:51:20 15° E 18:54:20 10° ENE
OE (NEXTSAT) 4.4 18:48:50 10° SW 18:52:22 74° SSE 18:55:48 11° ENE
ATLAS CENTAUR R/B 3.5 18:55:20 10° NNE 18:56:51 12° NE 18:58:21 10° ENE
Cosmos 1975 Rocket 3.8 18:53:06 10° NNE 18:57:06 32° ENE 19:01:06 10° SE
CENTAUR R/B 2.7 18:51:43 10° SW 18:57:39 77° NW 19:04:30 10° NNE
Meteor 1-14 Rocket 4.4 18:52:46 10° S 18:58:35 87° WNW 19:04:32 10° N
Okean 1 3.5 18:55:41 10° N 18:59:32 45° E 19:03:20 10° SSE
NOAA 12 4.2 18:54:27 10° SSE 18:59:46 83° WSW 19:05:08 10° NNW
MOS 1-B Rocket 4.3 18:56:10 10° S 19:02:28 72° WSW 19:08:10 10° NNW
Cosmos 1602 4.3 19:00:00 10° SSE 19:03:33 35° E 19:07:07 10° NNE
Cosmos 1269 Rocket 4.0 19:00:27 10° S 19:05:40 67° ESE 19:10:56 10° NNE
Meteor 1-4 Rocket 3.6 19:03:28 10° SE 19:06:17 23° E 19:09:08 10° NE
Thor Agena Rocket 4.2 19:02:33 10° NE 19:06:59 30° E 19:11:23 10° SSE
USA 32 4.0 19:03:49 10° S 19:08:58 63° E 19:14:08 10° N
BREEZE-M R/B 3.8 19:06:51 10° NW 19:09:17 46° NE 19:14:37 14° ESE
CZ-4 R/B 4.5 19:08:59 10° SW 19:11:56 19° W 19:14:51 10° NW
Resurs 01 Rocket 3.0 19:15:18 18° ENE 19:15:53 18° ENE 19:18:54 10° NNE
OAO 2 Rocket 3.8 19:11:47 10° WSW 19:16:35 49° S 19:19:59 18° ESE
Cosmos 1513 Rocket 4.5 19:10:15 10° N 19:16:37 86° E 19:22:50 10° S
Cosmos 1378 Rocket 3.8 19:12:18 10° N 19:16:44 75° W 19:21:09 10° S
FREGAT/IRIS 2.4 19:15:06 10° SSE 19:18:01 64° ENE 19:20:58 10° N
Cosmos 2227 4.2 19:13:43 10° S 19:19:22 66° ESE 19:25:02 10° NNE
Tiangong 2 4.0 19:17:50 10° WSW 19:19:25 13° SW 19:21:00 10° S
Meteor 1-18 Rocket 4.4 19:13:52 10° NNW 19:19:27 76° W 19:24:58 10° S
EO 1 Del DPAF 3.8 19:16:26 10° N 19:20:13 61° WNW 19:23:59 10° SSW
Meteor 2-4 Rocket 4.3 19:15:43 10° N 19:20:58 35° ENE 19:26:04 10° SE
Iridium 4 Rocket 3.2 19:18:42 10° N 19:23:27 84° W 19:27:47 10° S
Alouette 2 Rocket 3.8 19:23:28 10° SSE 19:26:42 32° E 19:30:02 10° NNE
Cosmos 1437 Rocket 2.9 19:23:04 10° S 19:27:07 83° W 19:31:15 10° N
Cosmos 1782 Rocket 3.5 19:23:21 10° S 19:27:48 89° W 19:32:14 10° N
CZ-4C R/B 3.6 19:21:47 10° NNW 19:28:05 33° NE 19:31:56 22° E
Meteor 1-19 Rocket 4.2 19:24:16 10° N 19:29:44 60° ENE 19:35:13 10° SSE
Cosmos 1536 4.2 19:26:52 10° SSE 19:34:42 - NNE 19:28:50 22° SE
Cosmos 1331 Rocket 4.2 19:28:34 10° N 19:33:43 48° ENE 19:37:34 17° SE
Meteor 1-11 Rocket 3.8 19:32:13 10° S 19:37:38 55° E 19:43:12 10° NNE
Spot 2 Rocket 4.3 19:37:42 27° ENE 19:38:06 27° ENE 19:42:21 10° N
Tsikada Rocket 4.0 19:36:17 10° S 19:42:41 88° E 19:49:08 10° N
Cosmos 1943 3.6 19:38:16 10° N 19:43:38 42° ENE 19:45:39 31° ESE
USA 186 3.7 19:46:05 19° NNE 19:46:05 19° NNE 19:47:16 10° N
Gbstr 26 Del rocket 2.9 19:42:30 10° WSW 19:46:12 63° NW 19:47:47 32° NE
Cosmos 2251 Rocket 3.6 19:47:51 10° S 19:52:52 50° ESE 19:56:08 21° NE
Okean 2 Rocket 3.2 19:49:44 10° SSW 19:54:06 76° W 19:58:32 10° N
ARGOS Delta rocket 3.7 19:52:01 10° N 19:56:49 88° WNW 20:01:21 10° SSW
ERS-2 3.7 19:54:19 10° SSW 19:57:44 36° W 20:01:11 10° NNW
Cosmos 1939 Rocket 3.9 20:01:06 33° NNE 20:01:06 33° NNE 20:03:43 10° N
Cosmos 2151 Rocket 3.4 19:59:15 10° S 20:03:43 71° E 20:08:10 10° NNE
Cosmos 1302 Rocket 4.1 20:00:07 10° N 20:05:12 51° ENE 20:05:18 51° ENE
SeaSat 1 2.3 20:04:38 47° SE 20:05:59 72° ENE 20:10:54 10° NNW
COSMOS 2455 2.8 20:06:07 10° SSW 20:12:08 82° WNW 20:17:38 13° NNE
Cosmos 1184 Rocket 4.4 20:11:37 10° NNW 20:13:29 30° NNW 20:13:29 30° NNW
Meteor 1-23 Rocket 4.2 20:09:30 10° N 20:15:19 66° E 20:16:31 53° SE
USA 215 3.1 20:11:44 28° NE 20:15:29 87° SE 20:22:01 10° SW
Meteor 2-9 4.5 20:11:04 10° S 20:16:28 83° E 20:21:59 10° N
SJ-6B 4.3 20:14:44 10° SSW 20:18:12 34° W 20:21:45 10° NNW
Cosmos 2279 Rocket 4.1 20:13:58 10° N 20:19:44 52° ENE 20:19:44 52° ENE
Cosmos 1603 4.4 20:17:49 10° NNW 20:23:16 50° WSW 20:27:50 14° S
Envisat 3.8 20:22:17 10° S 20:27:12 51° W 20:32:09 10° NNW
Resurs 1-3 4.1 20:33:27 56° NW 20:33:27 56° NW 20:37:07 10° NNW
Cosmos 2263 Rocket 2.3 20:29:02 10° SSW 20:34:34 69° WNW 20:37:36 28° NNE
ATLAS CENTAUR R/B 2.7 20:32:07 10° NNW 20:34:39 36° NNW 20:34:39 36° NNW
Cosmos 1634 Rocket 4.3 20:35:32 10° NNW 20:41:36 62° W 20:47:11 12° S
USA 267 3.8 20:48:25 42° NNE 20:48:25 42° NNE 20:54:12 10° NW
Resurs 01 Rocket 3.0 20:52:52 36° WNW 20:52:52 36° WNW 20:56:13 10° NNW
CZ-3C R/B 4.2 20:53:19 10° SSW 20:57:13 25° S 20:57:13 25° S
CZ-4C R/B 3.1 21:09:53 10° NW 21:17:10 67° WSW 21:17:10 67° WSW
